Change the Weather History Date:

Tuesday, March 26, 2013

  Actual Average Record
Temperature  
Mean Temperature 32 °F -  
Max Temperature 44 °F 37 °F 69 °F (2007)
Min Temperature 21 °F 18 °F -18 °F (2014)
Degree Days  
Heating Degree Days 32    
Moisture  
Dew Point 19 °F    
Average Humidity 64    
Maximum Humidity 86    
Minimum Humidity 34    
Precipitation  
Precipitation 0.00 in - - ()
Sea Level Pressure  
Sea Level Pressure 30.25 in    
Wind  
Wind Speed 1 mph (North)    
Max Wind Speed 6 mph    
Max Gust Speed -    
Visibility 10 miles    
Events      
Averages and records for this station are not official NWS values.
T = Trace of Precipitation, MM = Missing Value Source: NWS Daily Summary

Daily Weather History Graph

Daily Weather History Graph

Search for Another Location

Airport or City:

Trip Planner

Search our weather history database for the weather conditions in past years. The results will help you decide how hot, cold, wet, or windy it might be!

Date:

Astronomy

Mar. 26, 2013 Rise Set
Actual Time 6:59 AM CDT 7:31 PM CDT
Civil Twilight 6:28 AM CDT 8:03 PM CDT
Nautical Twilight 5:51 AM CDT 8:40 PM CDT
Astronomical Twilight 5:12 AM CDT 9:19 PM CDT
Moon 7:10 PM CDT (3/26) 6:18 AM CDT (3/26)
Length of Visible Light 13h 34m
Length of Day
12h 32m
Waxing Gibbous, 99% of the Moon is Illuminated
Mar 26
Waxing Gibbous
Mar 27
Full
Apr 2
Last Quarter
Apr 10
New
Apr 18
First Quarter

Hourly Weather History & Observations

Time (CDT) Temp. Windchill Dew Point Humidity Pressure Visibility Wind Dir Wind Speed Gust Speed Precip Events Conditions
12:07 AM 24.8 °F - 15.8 °F 69% 30.22 in 10.0 mi Calm Calm - N/A   Overcast
12:27 AM 23.0 °F - 15.8 °F 74% 30.22 in 10.0 mi Calm Calm - N/A   Overcast
12:47 AM 23.0 °F - 14.0 °F 68% 30.22 in 10.0 mi Calm Calm - N/A   Overcast
1:07 AM 21.2 °F - 14.0 °F 74% 30.23 in 10.0 mi Calm Calm - N/A   Overcast
1:27 AM 21.2 °F - 15.8 °F 80% 30.23 in 10.0 mi Calm Calm - N/A   Overcast
1:47 AM 23.0 °F - 15.8 °F 74% 30.23 in 10.0 mi Calm Calm - N/A   Overcast
2:07 AM 21.2 °F - 15.8 °F 80% 30.23 in 10.0 mi Calm Calm - N/A   Overcast
2:27 AM 23.0 °F - 15.8 °F 74% 30.23 in 10.0 mi Calm Calm - N/A   Overcast
2:47 AM 23.0 °F - 15.8 °F 74% 30.23 in 10.0 mi Calm Calm - N/A   Overcast
3:07 AM 23.0 °F - 17.6 °F 80% 30.23 in 10.0 mi Calm Calm - N/A   Overcast
3:27 AM 23.0 °F - 15.8 °F 74% 30.23 in 10.0 mi Calm Calm - N/A   Overcast
3:47 AM 21.2 °F - 15.8 °F 80% 30.23 in 10.0 mi Calm Calm - N/A   Overcast
4:07 AM 21.2 °F - 15.8 °F 80% 30.23 in 10.0 mi Calm Calm - N/A   Overcast
4:27 AM 21.2 °F - 15.8 °F 80% 30.23 in 10.0 mi Calm Calm - N/A   Overcast
4:47 AM 21.2 °F - 15.8 °F 80% 30.24 in 10.0 mi Calm Calm - N/A   Overcast
5:07 AM 21.2 °F - 15.8 °F 80% 30.24 in 10.0 mi Calm Calm - N/A   Overcast
5:27 AM 21.2 °F - 15.8 °F 80% 30.24 in 10.0 mi Calm Calm - N/A   Overcast
5:47 AM 21.2 °F - 17.6 °F 86% 30.24 in 10.0 mi Calm Calm - N/A   Overcast
6:07 AM 21.2 °F - 15.8 °F 80% 30.25 in 10.0 mi Calm Calm - N/A   Overcast
6:27 AM 21.2 °F - 15.8 °F 80% 30.25 in 10.0 mi Calm Calm - N/A   Overcast
6:47 AM 21.2 °F - 15.8 °F 80% 30.25 in 10.0 mi Calm Calm - N/A   Overcast
7:07 AM 21.2 °F - 17.6 °F 86% 30.26 in 10.0 mi Calm Calm - N/A   Overcast
7:27 AM 21.2 °F - 17.6 °F 86% 30.26 in 10.0 mi Calm Calm - N/A   Overcast
7:47 AM 23.0 °F - 17.6 °F 80% 30.26 in 10.0 mi Calm Calm - N/A   Overcast
8:07 AM 24.8 °F - 19.4 °F 80% 30.27 in 10.0 mi Calm Calm - N/A   Overcast
8:27 AM 26.6 °F - 21.2 °F 80% 30.27 in 10.0 mi Calm Calm - N/A   Overcast
8:47 AM 28.4 °F - 23.0 °F 80% 30.27 in 10.0 mi Calm Calm - N/A   Overcast
9:07 AM 30.2 °F 25.4 °F 23.0 °F 75% 30.27 in 10.0 mi NW 4.6 mph - N/A   Mostly Cloudy
9:27 AM 33.8 °F 30.8 °F 24.8 °F 70% 30.27 in 10.0 mi NW 3.5 mph - N/A   Mostly Cloudy
9:47 AM 33.8 °F - 24.8 °F 70% 30.28 in 10.0 mi Calm Calm - N/A   Mostly Cloudy
10:07 AM 35.6 °F - 26.6 °F 70% 30.28 in 10.0 mi Calm Calm - N/A   Mostly Cloudy
10:27 AM 37.4 °F 33.8 °F 24.8 °F 60% 30.28 in 10.0 mi North 4.6 mph - N/A   Scattered Clouds
10:47 AM 39.2 °F 35.9 °F 24.8 °F 56% 30.27 in 10.0 mi NNE 4.6 mph - N/A   Clear
11:07 AM 39.2 °F 35.9 °F 23.0 °F 52% 30.27 in 10.0 mi North 4.6 mph - N/A   Clear
11:27 AM 37.4 °F 34.9 °F 21.2 °F 52% 30.27 in 10.0 mi NNE 3.5 mph - N/A   Clear
11:47 AM 41.0 °F 37.1 °F 23.0 °F 49% 30.27 in 10.0 mi North 5.8 mph - N/A   Clear
12:07 PM 42.8 °F 40.1 °F 21.2 °F 42% 30.26 in 10.0 mi North 4.6 mph - N/A   Clear
12:27 PM 42.8 °F 41.1 °F 21.2 °F 42% 30.26 in 10.0 mi North 3.5 mph - N/A   Clear
12:47 PM 42.8 °F 40.1 °F 21.2 °F 42% 30.26 in 10.0 mi NNE 4.6 mph - N/A   Clear
1:07 PM 42.8 °F 39.3 °F 17.6 °F 36% 30.26 in 10.0 mi NNE 5.8 mph - N/A   Mostly Cloudy
1:27 PM 39.2 °F 35.9 °F 19.4 °F 45% 30.26 in 10.0 mi NNE 4.6 mph - N/A   Overcast
1:47 PM 39.2 °F 37.0 °F 19.4 °F 45% 30.26 in 10.0 mi North 3.5 mph - N/A   Overcast
2:07 PM 42.8 °F 40.1 °F 21.2 °F 42% 30.25 in 10.0 mi North 4.6 mph - N/A   Scattered Clouds
2:27 PM 44.6 °F 42.2 °F 17.6 °F 34% 30.25 in 10.0 mi NNE 4.6 mph - N/A   Scattered Clouds
2:47 PM 44.6 °F 41.4 °F 19.4 °F 37% 30.24 in 10.0 mi North 5.8 mph - N/A   Scattered Clouds
3:07 PM 42.8 °F 39.3 °F 15.8 °F 34% 30.25 in 10.0 mi NNE 5.8 mph - N/A   Overcast
3:27 PM 39.2 °F 35.0 °F 17.6 °F 42% 30.25 in 10.0 mi North 5.8 mph - N/A   Overcast
3:47 PM 39.2 °F 35.0 °F 17.6 °F 42% 30.25 in 10.0 mi North 5.8 mph - N/A   Overcast
4:07 PM 39.2 °F 37.0 °F 17.6 °F 42% 30.24 in 10.0 mi NNE 3.5 mph - N/A   Overcast
4:27 PM 37.4 °F 33.8 °F 15.8 °F 41% 30.24 in 10.0 mi North 4.6 mph - N/A   Overcast
4:47 PM 37.4 °F 34.9 °F 17.6 °F 45% 30.25 in 10.0 mi North 3.5 mph - N/A   Overcast
5:07 PM 37.4 °F - 17.6 °F 45% 30.25 in 10.0 mi Calm Calm - N/A   Overcast
5:47 PM 37.4 °F 34.9 °F 17.6 °F 45% 30.25 in 10.0 mi North 3.5 mph - N/A   Overcast
6:07 PM 35.6 °F 31.7 °F 17.6 °F 48% 30.25 in 10.0 mi North 4.6 mph - N/A   Overcast
6:27 PM 35.6 °F - 17.6 °F 48% 30.25 in 10.0 mi Calm Calm - N/A   Overcast
6:47 PM 35.6 °F - 17.6 °F 48% 30.26 in 10.0 mi Calm Calm - N/A   Overcast
7:07 PM 33.8 °F - 17.6 °F 52% 30.26 in 10.0 mi Calm Calm - N/A   Overcast
7:27 PM 33.8 °F - 17.6 °F 52% 30.26 in 10.0 mi Calm Calm - N/A   Overcast
7:47 PM 32.0 °F - 15.8 °F 51% 30.26 in 10.0 mi Calm Calm - N/A   Overcast
8:07 PM 30.2 °F - 17.6 °F 60% 30.26 in 10.0 mi Calm Calm - N/A   Overcast
8:27 PM 28.4 °F - 17.6 °F 64% 30.26 in 10.0 mi Calm Calm - N/A   Overcast
8:47 PM 28.4 °F - 19.4 °F 69% 30.26 in 10.0 mi Calm Calm - N/A   Overcast
9:07 PM 28.4 °F - 19.4 °F 69% 30.26 in 10.0 mi Calm Calm - N/A   Overcast
9:27 PM 28.4 °F - 19.4 °F 69% 30.27 in 10.0 mi Calm Calm - N/A   Overcast
9:47 PM 28.4 °F - 21.2 °F 74% 30.27 in 10.0 mi Calm Calm - N/A   Overcast
10:07 PM 28.4 °F - 21.2 °F 74% 30.27 in 10.0 mi Calm Calm - N/A   Overcast
10:27 PM 28.4 °F - 21.2 °F 74% 30.27 in 10.0 mi Calm Calm - N/A   Overcast
10:47 PM 28.4 °F - 21.2 °F 74% 30.27 in 10.0 mi Calm Calm - N/A   Overcast
11:07 PM 26.6 °F - 21.2 °F 80% 30.27 in 10.0 mi Calm Calm - N/A   Overcast
11:27 PM 26.6 °F - 21.2 °F 80% 30.27 in 10.0 mi Calm Calm - N/A   Overcast
11:47 PM 26.6 °F - 21.2 °F 80% 30.27 in 10.0 mi Calm Calm - N/A   Overcast